Vernon, TX

4:53 PM CDT on July 24, 2017 (GMT -0500)
Vernon

Weather History for KF05 - April, 2013

Change the Weather History Date:

Tuesday, April 30, 2013

  Actual Average (KLTS) Record (KLTS)
Temperature  
Mean Temperature 76 °F -  
Max Temperature 91 °F 76 °F 93 °F (2002)
Min Temperature 61 °F 52 °F 39 °F (1998)
Cooling Degree Days 11    
Growing Degree Days 26 (Base 50)    
Moisture  
Dew Point 55 °F    
Average Humidity 50    
Maximum Humidity 81    
Minimum Humidity 22    
Precipitation  
Precipitation 0.00 in - - ()
Sea Level Pressure  
Sea Level Pressure 29.71 in    
Wind  
Wind Speed 16 mph (SSE)    
Max Wind Speed 28 mph    
Max Gust Speed 31 mph    
Visibility 10 miles    
Events      
Averages and records for this station are not official NWS values.
T = Trace of Precipitation, MM = Missing Value Source: NWS Daily Summary

Daily Weather History Graph

Daily Weather History Graph

Search for Another Location

Airport or City:

Trip Planner

Search our weather history database for the weather conditions in past years. The results will help you decide how hot, cold, wet, or windy it might be!

Date:

Astronomy

Apr. 30, 2013 Rise Set
Actual Time 6:48 AM CDT 8:20 PM CDT
Civil Twilight 6:21 AM CDT 8:47 PM CDT
Nautical Twilight 5:49 AM CDT 9:19 PM CDT
Astronomical Twilight 5:15 AM CDT 9:53 PM CDT
Moon 12:42 AM CDT (4/30) 11:21 AM CDT (4/30)
Length of Visible Light 14h 25m
Length of Day
13h 32m
Waning Gibbous, 70% of the Moon is Illuminated
Apr 30
Waning Gibbous
May 2
Last Quarter
May 9
New
May 17
First Quarter
May 24
Full

Hourly Weather History & Observations

Time (CDT) Temp. Heat Index Dew Point Humidity Pressure Visibility Wind Dir Wind Speed Gust Speed Precip Events Conditions
12:15 AM 74.5 °F - 57.4 °F 55% 29.74 in 10.0 mi SSE 18.4 mph 24.2 mph N/A   Clear
12:35 AM 74.1 °F - 58.1 °F 57% 29.74 in 10.0 mi SSE 23.0 mph 27.6 mph N/A   Clear
12:55 AM 73.6 °F - 58.1 °F 58% 29.74 in 10.0 mi SSE 20.7 mph 27.6 mph N/A   Clear
1:15 AM 73.0 °F - 58.1 °F 59% 29.74 in 10.0 mi South 17.3 mph 24.2 mph N/A   Clear
1:35 AM 72.3 °F - 58.1 °F 61% 29.74 in 10.0 mi SSE 17.3 mph - N/A   Clear
1:55 AM 72.0 °F - 58.3 °F 62% 29.74 in 10.0 mi South 16.1 mph 24.2 mph N/A   Clear
2:15 AM 71.8 °F - 58.5 °F 63% 29.75 in 10.0 mi South 17.3 mph - N/A   Clear
2:35 AM 71.2 °F - 58.5 °F 64% 29.74 in 10.0 mi South 17.3 mph 21.9 mph N/A   Clear
2:55 AM 70.5 °F - 58.3 °F 65% 29.74 in 10.0 mi South 11.5 mph - N/A   Clear
3:15 AM 69.8 °F - 58.1 °F 66% 29.74 in 10.0 mi South 11.5 mph - N/A   Clear
3:35 AM 69.1 °F - 57.9 °F 68% 29.74 in 10.0 mi South 10.4 mph - N/A   Clear
3:55 AM 68.0 °F - 57.6 °F 69% 29.73 in 10.0 mi South 9.2 mph - N/A   Clear
4:15 AM 67.1 °F - 57.2 °F 70% 29.73 in 10.0 mi South 9.2 mph - N/A   Clear
4:35 AM 66.6 °F - 57.2 °F 72% 29.73 in 10.0 mi South 6.9 mph - N/A   Clear
4:55 AM 65.3 °F - 56.8 °F 74% 29.73 in 10.0 mi South 6.9 mph - N/A   Clear
5:15 AM 64.0 °F - 56.5 °F 76% 29.74 in 10.0 mi South 6.9 mph - N/A   Clear
5:35 AM 63.0 °F - 56.3 °F 79% 29.73 in 10.0 mi SSE 8.1 mph - N/A   Clear
5:55 AM 62.4 °F - 56.3 °F 80% 29.74 in 10.0 mi SSE 6.9 mph - N/A   Clear
6:15 AM 62.6 °F - 56.1 °F 79% 29.74 in 10.0 mi SSE 5.8 mph - N/A   Clear
6:35 AM 62.2 °F - 55.9 °F 80% 29.75 in 10.0 mi South 6.9 mph - N/A   Clear
6:55 AM 61.7 °F - 55.8 °F 81% 29.75 in 10.0 mi SSE 8.1 mph - N/A   Clear
7:15 AM 61.9 °F - 55.9 °F 81% 29.76 in 10.0 mi SSE 6.9 mph - N/A   Clear
7:35 AM 62.2 °F - 56.1 °F 80% 29.76 in 10.0 mi SE 8.1 mph - N/A   Clear
7:55 AM 64.0 °F - 56.8 °F 77% 29.76 in 10.0 mi SSE 10.4 mph - N/A   Clear
8:15 AM 65.7 °F - 57.0 °F 74% 29.76 in 10.0 mi SSE 10.4 mph - N/A   Clear
8:35 AM 67.1 °F - 57.2 °F 70% 29.75 in 10.0 mi SSE 11.5 mph 18.4 mph N/A   Clear
8:55 AM 69.1 °F - 57.7 °F 67% 29.76 in 10.0 mi South 15.0 mph 19.6 mph N/A   Clear
9:15 AM 70.9 °F - 58.1 °F 64% 29.76 in 10.0 mi South 16.1 mph 20.7 mph N/A   Clear
9:35 AM 72.1 °F - 58.5 °F 62% 29.76 in 10.0 mi South 13.8 mph - N/A   Clear
9:55 AM 73.6 °F - 58.8 °F 60% 29.76 in 10.0 mi SSW 15.0 mph - N/A   Clear
10:15 AM 75.2 °F - 59.2 °F 57% 29.75 in 10.0 mi South 15.0 mph 20.7 mph N/A   Clear
10:35 AM 76.6 °F - 59.2 °F 55% 29.75 in 10.0 mi South 15.0 mph 19.6 mph N/A   Clear
10:55 AM 77.9 °F - 59.0 °F 52% 29.74 in 10.0 mi South 13.8 mph 18.4 mph N/A   Clear
11:15 AM 79.3 °F - 58.5 °F 49% 29.74 in 10.0 mi South 16.1 mph 21.9 mph N/A   Clear
11:35 AM 81.1 °F 81.4 °F 58.3 °F 46% 29.74 in 10.0 mi South 13.8 mph 19.6 mph N/A   Clear
11:55 AM 82.6 °F 82.2 °F 57.2 °F 42% 29.73 in 10.0 mi South 16.1 mph 20.7 mph N/A   Clear
12:15 PM 83.8 °F 83.0 °F 56.3 °F 39% 29.73 in 10.0 mi South 12.7 mph - N/A   Clear
12:35 PM 85.1 °F 83.9 °F 55.8 °F 37% 29.72 in 10.0 mi South 20.7 mph 24.2 mph N/A   Clear
12:55 PM 86.0 °F 84.3 °F 54.5 °F 34% 29.71 in 10.0 mi South 18.4 mph 26.5 mph N/A   Clear
1:15 PM 87.1 °F 85.1 °F 54.0 °F 32% 29.70 in 10.0 mi South 19.6 mph 26.5 mph N/A   Clear
1:35 PM 88.0 °F 85.7 °F 53.1 °F 30% 29.70 in 10.0 mi SSE 19.6 mph 28.8 mph N/A   Clear
1:55 PM - - - N/A% 29.69 in - SSE 18.4 mph - N/A   Unknown
2:15 PM 89.8 °F - 52.2 °F 28% 29.69 in 10.0 mi SSE 21.9 mph 27.6 mph N/A   Clear
2:35 PM 90.3 °F - 51.1 °F 26% 29.69 in 10.0 mi South 17.3 mph 27.6 mph N/A   Clear
2:55 PM 90.9 °F - 50.5 °F 25% 29.68 in 10.0 mi South 21.9 mph 27.6 mph N/A   Clear
3:15 PM 91.0 °F - 49.6 °F 24% 29.68 in 10.0 mi SSE 18.4 mph 25.3 mph N/A   Clear
3:35 PM 91.4 °F - 48.2 °F 23% 29.68 in 10.0 mi SSE 19.6 mph 26.5 mph N/A   Clear
3:55 PM 91.8 °F - 48.6 °F 23% 29.67 in 10.0 mi SSE 21.9 mph 26.5 mph N/A   Clear
4:15 PM 91.8 °F - 47.3 °F 22% 29.67 in 10.0 mi South 21.9 mph 26.5 mph N/A   Clear
4:35 PM 91.8 °F - 48.0 °F 22% 29.66 in 10.0 mi SSE 21.9 mph 25.3 mph N/A   Clear
4:55 PM 91.8 °F - 47.8 °F 22% 29.66 in 10.0 mi SSE 20.7 mph 26.5 mph N/A   Clear
5:15 PM 91.6 °F - 47.8 °F 22% 29.65 in 10.0 mi SE 19.6 mph 25.3 mph N/A   Clear
5:35 PM 91.4 °F - 47.7 °F 22% 29.65 in 10.0 mi SSE 19.6 mph 26.5 mph N/A   Clear
5:55 PM 90.9 °F - 48.4 °F 23% 29.65 in 10.0 mi SSE 20.7 mph 25.3 mph N/A   Clear
6:15 PM 90.5 °F - 48.4 °F 23% 29.65 in 10.0 mi SSE 20.7 mph 25.3 mph N/A   Clear
6:35 PM 90.1 °F - 46.9 °F 22% 29.65 in 10.0 mi SSE 19.6 mph 24.2 mph N/A   Clear
6:55 PM 89.4 °F - 47.5 °F 23% 29.64 in 10.0 mi SSE 20.7 mph 26.5 mph N/A   Clear
7:15 PM 88.3 °F - 48.6 °F 25% 29.64 in 10.0 mi SE 20.7 mph 26.5 mph N/A   Clear
7:35 PM 87.1 °F - 49.8 °F 28% 29.64 in 10.0 mi SE 23.0 mph 28.8 mph N/A   Clear
7:55 PM 85.6 °F - 51.8 °F 31% 29.65 in 10.0 mi SE 27.6 mph 31.1 mph N/A   Clear
8:15 PM 83.5 °F 82.5 °F 55.6 °F 38% 29.66 in 10.0 mi SE 18.4 mph 26.5 mph N/A   Clear
8:35 PM 82.0 °F 81.7 °F 57.0 °F 42% 29.67 in 10.0 mi SE 17.3 mph 26.5 mph N/A   Clear
8:55 PM 80.8 °F 81.0 °F 57.7 °F 45% 29.68 in 10.0 mi SE 21.9 mph 28.8 mph N/A   Clear
9:15 PM 79.7 °F - 57.7 °F 47% 29.69 in 10.0 mi SE 19.6 mph - N/A   Clear
9:35 PM 78.3 °F - 57.2 °F 48% 29.70 in 10.0 mi SE 17.3 mph 25.3 mph N/A   Clear
9:55 PM 77.2 °F - 56.3 °F 48% 29.71 in 10.0 mi SE 16.1 mph 21.9 mph N/A   Clear
10:15 PM 76.3 °F - 56.1 °F 50% 29.72 in 10.0 mi SE 17.3 mph 23.0 mph N/A   Clear
10:35 PM 75.4 °F - 56.7 °F 52% 29.74 in 10.0 mi SSE 17.3 mph - N/A   Clear
10:55 PM 75.2 °F - 57.2 °F 53% 29.73 in 10.0 mi SE 18.4 mph 24.2 mph N/A   Clear
11:15 PM 74.7 °F - 57.2 °F 54% 29.73 in 10.0 mi SE 19.6 mph 24.2 mph N/A   Clear
11:35 PM 74.3 °F - 57.2 °F 55% 29.74 in 10.0 mi SSE 18.4 mph 26.5 mph N/A   Clear
11:55 PM 74.1 °F - 57.2 °F 55% 29.75 in 10.0 mi SSE 19.6 mph 26.5 mph N/A   Clear